GPS BIIF-5 (39533 NORAD) Tracking and Keplerian Element Data

This shows tracking and keplerian element data for the satellite.

Feedback or suggestion? Click here.




ElementValue
Catalog39533
NameGPS BIIF-5
Epoch Orbit5507
Epoch Day268.60122265
Epoch Year2021
RAAN219.6873
Inclination53.6611
Eccentricity0.0054517
Argument of Perigee205.6019
Mean Anonmoly154.1115
Mean Motion2.00566696
Decay Rate1.9E-07
L11 39533U 14008A 21268.60122265 .00000019 00000-0 00000-0 0 9999
L22 39533 53.6611 219.6873 0054517 205.6019 154.1115 2.00566696 55073

Live tracking and technical data element details for GPS BIIF-5 (NORAD 39533). GPS BIIF-5 can be tracked NOW for your location showing map with azimuth and elevation plus other details from your city location.

Track the satellite on the map from your city or location and see movement details for azimuth, elevation, latitude, longitude, range, height, and movement on the map or in text.







IsCatalogInMostPopularTable: catalog: 39533, numindb: 623
Update: records affected: 1



GetName: 39533 GPS BIIF-5

Hit Count: updated at: Tue, 28 Sep 2021 16:58:28 GMT